Terminal Aerodrome Forecast
Issued by NWS

Home | Current Version | Previous Version | Text Only | Print | Product List | Glossary On
Versions: 1 2 3 4 5 6 7 8 9 10 11 12 13 14
000
FTUS46 KSGX 242300
TAFPSP
TAF
KPSP 242338Z 2500/2524 VRB04KT P6SM FEW250
     FM250300 33010KT P6SM SCT250
     FM250600 VRB05KT P6SM SCT250
     FM251900 33015G24KT P6SM SCT250=

USA.gov is the U.S. government's official web portal to all federal, state and local government web resources and services.